Darstellungsparameter: Aktuell verwendete Einstellungen:
Skalierung der Graphiken ... ?
xyx+y,   Skalierungsfaktor:      Skalierung: Modus: x, Faktor: 1
Darstellungszeitraum ... ?
Vom - - bis: - -   Zeitraum: 01.07.2021 - 01.07.2021
Min/Max/Avg-Anzeige ... ?
Zeige MMA aktuell
Zeige MMA Monat
Zeige MMA alles
Zeige --A aktuell
Zeige --A Monat
Zeige --A alles
Keine MMA-Anzeige
MMA:
Average (ber die Originaldaten)
MMA-Basis: 01.07.2021 - 01.07.2021
Quicknavigation für Darstellung... ?
Tage:      1T, 2T, 3T, 5T -1T -2T -3T -5T +1T +2T +3T +5T
Wochen: 1W, 2W, 3W -1W -2W -3W +1W +2W +3W
Monate: 1M, 3M, 6M -1M -3M -6M +1M +3M +6M
Jahre:    1J, 3J, 5J, 10J -1J -3J -5J -10J +1J +3J +5J +10J
Nutze für die Darstellung ... ?
Originaldaten oder Mittelwerte auf ...
Stundenbasis Tagesbasis Wochenbasis
Monatsbasis Jahresbasis      Datenbasis: Original-Daten
Darstellen als:
Statistik (Auto) Statistik J:M      Darstellung:
Zur Graphik,    zurück zur Übersicht aller Sensoren.
 
Tabellarische Datenbersicht: ?
 
Sensor: Nr:Datum:Temp:Abs-Feuchte:Windchill:Wind:
Aussen-T/F 1 01-07-2021 00:00:00 14.8 C 12.16 g/m*3 14.8 C 3.2 km/h
2 01-07-2021 00:05:00 14.8 C 12.16 g/m*3 14.8 C 3.2 km/h
3 01-07-2021 00:10:00 14.8 C 12.16 g/m*3 14.8 C 3.2 km/h
4 01-07-2021 00:15:00 14.7 C 12.09 g/m*3 14.7 C 3.2 km/h
5 01-07-2021 00:20:00 14.7 C 12.09 g/m*3 14.7 C 0 km/h
6 01-07-2021 00:25:00 14.7 C 12.09 g/m*3 14.7 C 3.2 km/h
7 01-07-2021 00:30:00 14.7 C 12.09 g/m*3 14.7 C 1.6 km/h
8 01-07-2021 00:35:00 14.7 C 12.09 g/m*3 14.7 C 3.2 km/h
9 01-07-2021 00:40:00 14.7 C 12.09 g/m*3 14.7 C 1.6 km/h
10 01-07-2021 00:45:00 14.7 C 12.09 g/m*3 14.7 C 1.6 km/h
11 01-07-2021 00:50:00 14.6 C 12.01 g/m*3 14.6 C 0 km/h
12 01-07-2021 00:55:00 14.6 C 12.01 g/m*3 14.6 C 0 km/h
13 01-07-2021 01:00:00 14.6 C 12.01 g/m*3 14.6 C 0 km/h
14 01-07-2021 01:05:00 14.6 C 12.01 g/m*3 14.6 C 4.8 km/h
15 01-07-2021 01:10:00 14.6 C 12.01 g/m*3 14.6 C 3.2 km/h
16 01-07-2021 01:15:00 14.5 C 11.94 g/m*3 14.5 C 4.8 km/h
17 01-07-2021 01:20:00 14.4 C 11.87 g/m*3 14.4 C 4.8 km/h
18 01-07-2021 01:25:00 14.4 C 11.87 g/m*3 14.4 C 3.2 km/h
19 01-07-2021 01:30:00 14.4 C 11.87 g/m*3 14.4 C 3.2 km/h
20 01-07-2021 01:35:00 14.3 C 11.79 g/m*3 14.3 C 4.8 km/h
21 01-07-2021 01:40:00 14.3 C 11.79 g/m*3 14.3 C 1.6 km/h
22 01-07-2021 01:45:00 14.3 C 11.79 g/m*3 14.3 C 0 km/h
23 01-07-2021 01:50:00 14.3 C 11.79 g/m*3 14.3 C 0 km/h
24 01-07-2021 01:55:00 14.3 C 11.79 g/m*3 14.3 C 0 km/h
25 01-07-2021 02:00:00 14.3 C 11.79 g/m*3 14.3 C 0 km/h
Sensor: Nr:Datum:Temp:Abs-Feuchte:Windchill:Wind:
Aussen-T/F 26 01-07-2021 02:05:00 14.3 C 11.79 g/m*3 14.3 C 0 km/h
27 01-07-2021 02:10:00 14.3 C 11.79 g/m*3 14.3 C 0 km/h
28 01-07-2021 02:15:00 14.3 C 11.79 g/m*3 14.3 C 0 km/h
29 01-07-2021 02:20:00 14.3 C 11.79 g/m*3 14.3 C 0 km/h
30 01-07-2021 02:25:00 14.3 C 11.79 g/m*3 14.3 C 0 km/h
31 01-07-2021 02:30:00 14.3 C 11.79 g/m*3 14.3 C 0 km/h
32 01-07-2021 02:35:00 14.3 C 11.79 g/m*3 14.3 C 0 km/h
33 01-07-2021 02:40:00 14.3 C 11.79 g/m*3 14.3 C 0 km/h
34 01-07-2021 02:45:00 14.3 C 11.79 g/m*3 14.3 C 0 km/h
35 01-07-2021 02:50:00 14.3 C 11.79 g/m*3 14.3 C 0 km/h
36 01-07-2021 02:55:00 14.3 C 11.79 g/m*3 14.3 C 0 km/h
37 01-07-2021 03:00:00 14.3 C 11.79 g/m*3 14.3 C 0 km/h
38 01-07-2021 03:05:00 14.3 C 11.79 g/m*3 14.3 C 0 km/h
39 01-07-2021 03:10:00 14.3 C 11.79 g/m*3 14.3 C 0 km/h
40 01-07-2021 03:15:00 14.2 C 11.72 g/m*3 14.2 C 0 km/h
41 01-07-2021 03:20:00 14.2 C 11.84 g/m*3 14.2 C 0 km/h
42 01-07-2021 03:25:00 14.2 C 11.84 g/m*3 14.2 C 0 km/h
43 01-07-2021 03:30:00 14.2 C 11.84 g/m*3 14.2 C 0 km/h
44 01-07-2021 03:35:00 14.2 C 11.84 g/m*3 14.2 C 0 km/h
45 01-07-2021 03:40:00 14.1 C 11.77 g/m*3 14.1 C 1.6 km/h
46 01-07-2021 03:45:00 14.1 C 11.77 g/m*3 14.1 C 1.6 km/h
47 01-07-2021 03:50:00 14.1 C 11.77 g/m*3 14.1 C 1.6 km/h
48 01-07-2021 03:55:00 14.2 C 11.84 g/m*3 14.2 C 0 km/h
49 01-07-2021 04:00:00 14.2 C 11.84 g/m*3 14.2 C 0 km/h
50 01-07-2021 04:05:00 14.2 C 11.84 g/m*3 14.2 C 0 km/h
Sensor: Nr:Datum:Temp:Abs-Feuchte:Windchill:Wind:
Aussen-T/F 51 01-07-2021 04:10:00 14.2 C 11.84 g/m*3 14.2 C 0 km/h
52 01-07-2021 04:15:00 14.1 C 11.77 g/m*3 14.1 C 3.2 km/h
53 01-07-2021 04:20:00 14.1 C 11.77 g/m*3 14.1 C 1.6 km/h
54 01-07-2021 04:25:00 14.1 C 11.65 g/m*3 14.1 C 1.6 km/h
55 01-07-2021 04:30:00 14 C 11.58 g/m*3 14 C 1.6 km/h
56 01-07-2021 04:35:00 13.9 C 11.63 g/m*3 13.9 C 1.6 km/h
57 01-07-2021 04:40:00 13.9 C 11.51 g/m*3 13.9 C 1.6 km/h
58 01-07-2021 04:45:00 13.9 C 11.63 g/m*3 13.9 C 3.2 km/h
59 01-07-2021 04:50:00 13.9 C 11.63 g/m*3 13.9 C 1.6 km/h
60 01-07-2021 04:55:00 13.8 C 11.56 g/m*3 13.8 C 0 km/h
61 01-07-2021 05:00:00 13.8 C 11.56 g/m*3 13.8 C 1.6 km/h
62 01-07-2021 05:05:00 13.8 C 11.56 g/m*3 13.8 C 1.6 km/h
63 01-07-2021 05:10:00 13.8 C 11.56 g/m*3 13.8 C 0 km/h
64 01-07-2021 05:15:00 13.8 C 11.44 g/m*3 13.8 C 1.6 km/h
65 01-07-2021 05:20:00 13.8 C 11.56 g/m*3 13.8 C 1.6 km/h
66 01-07-2021 05:25:00 13.8 C 11.56 g/m*3 13.8 C 1.6 km/h
67 01-07-2021 05:30:00 13.7 C 11.49 g/m*3 13.7 C 0 km/h
68 01-07-2021 05:35:00 13.7 C 11.49 g/m*3 13.7 C 1.6 km/h
69 01-07-2021 05:40:00 13.7 C 11.49 g/m*3 13.7 C 0 km/h
70 01-07-2021 05:45:00 13.7 C 11.49 g/m*3 13.7 C 1.6 km/h
71 01-07-2021 05:50:00 13.7 C 11.49 g/m*3 13.7 C 3.2 km/h
72 01-07-2021 05:55:00 13.7 C 11.49 g/m*3 13.7 C 1.6 km/h
73 01-07-2021 06:00:00 13.7 C 11.49 g/m*3 13.7 C 0 km/h
74 01-07-2021 06:05:00 13.7 C 11.49 g/m*3 13.7 C 0 km/h
75 01-07-2021 06:10:00 13.7 C 11.49 g/m*3 13.7 C 3.2 km/h
Sensor: Nr:Datum:Temp:Abs-Feuchte:Windchill:Wind:
Aussen-T/F 76 01-07-2021 06:15:00 13.7 C 11.49 g/m*3 13.7 C 1.6 km/h
77 01-07-2021 06:20:00 13.7 C 11.49 g/m*3 13.7 C 3.2 km/h
78 01-07-2021 06:25:00 13.7 C 11.49 g/m*3 13.7 C 1.6 km/h
79 01-07-2021 06:30:00 13.7 C 11.49 g/m*3 13.7 C 0 km/h
80 01-07-2021 06:35:00 13.7 C 11.49 g/m*3 13.7 C 1.6 km/h
81 01-07-2021 06:40:00 13.7 C 11.49 g/m*3 13.7 C 0 km/h
82 01-07-2021 06:45:00 13.7 C 11.49 g/m*3 13.7 C 0 km/h
83 01-07-2021 06:50:00 13.7 C 11.49 g/m*3 13.7 C 0 km/h
84 01-07-2021 06:55:00 13.7 C 11.49 g/m*3 13.7 C 1.6 km/h
85 01-07-2021 07:00:00 13.7 C 11.49 g/m*3 13.7 C 1.6 km/h
86 01-07-2021 07:05:00 13.7 C 11.49 g/m*3 13.7 C 1.6 km/h
87 01-07-2021 07:10:00 13.7 C 11.49 g/m*3 13.7 C 3.2 km/h
88 01-07-2021 07:15:00 13.7 C 11.49 g/m*3 13.7 C 0 km/h
89 01-07-2021 07:20:00 13.7 C 11.49 g/m*3 13.7 C 1.6 km/h
90 01-07-2021 07:25:00 13.7 C 11.49 g/m*3 13.7 C 1.6 km/h
91 01-07-2021 07:30:00 13.7 C 11.49 g/m*3 13.7 C 0 km/h
92 01-07-2021 07:35:00 13.7 C 11.49 g/m*3 13.7 C 0 km/h
93 01-07-2021 07:40:00 13.7 C 11.49 g/m*3 13.7 C 0 km/h
94 01-07-2021 07:45:00 13.7 C 11.49 g/m*3 13.7 C 1.6 km/h
95 01-07-2021 07:50:00 13.7 C 11.49 g/m*3 13.7 C 6.4 km/h
96 01-07-2021 07:55:00 13.7 C 11.49 g/m*3 13.7 C 6.4 km/h
97 01-07-2021 08:00:00 13.8 C 11.56 g/m*3 13.8 C 1.6 km/h
98 01-07-2021 08:05:00 13.8 C 11.56 g/m*3 13.8 C 1.6 km/h
99 01-07-2021 08:10:00 13.8 C 11.56 g/m*3 13.8 C 1.6 km/h
100 01-07-2021 08:15:00 13.9 C 11.63 g/m*3 13.9 C 1.6 km/h
Sensor: Nr:Datum:Temp:Abs-Feuchte:Windchill:Wind:
Aussen-T/F 101 01-07-2021 08:20:00 13.9 C 11.63 g/m*3 13.9 C 6.4 km/h
102 01-07-2021 08:25:00 13.9 C 11.51 g/m*3 13.9 C 0 km/h
103 01-07-2021 08:30:00 14 C 11.58 g/m*3 14 C 0 km/h
104 01-07-2021 08:35:00 14.1 C 11.65 g/m*3 14.1 C 0 km/h
105 01-07-2021 08:40:00 14.1 C 11.65 g/m*3 14.1 C 1.6 km/h
106 01-07-2021 08:45:00 14.2 C 11.84 g/m*3 14.2 C 1.6 km/h
107 01-07-2021 08:50:00 14.2 C 11.72 g/m*3 14.2 C 3.2 km/h
108 01-07-2021 08:55:00 14.2 C 11.72 g/m*3 14.2 C 3.2 km/h
109 01-07-2021 09:00:00 14.2 C 11.72 g/m*3 14.2 C 4.8 km/h
110 01-07-2021 09:05:00 14.2 C 11.72 g/m*3 14.2 C 3.2 km/h
111 01-07-2021 09:10:00 14.2 C 11.6 g/m*3 14.2 C 1.6 km/h
112 01-07-2021 09:15:00 14.2 C 11.72 g/m*3 14.2 C 1.6 km/h
113 01-07-2021 09:20:00 14.2 C 11.6 g/m*3 14.2 C 12.9 km/h
114 01-07-2021 09:25:00 13.9 C 11.27 g/m*3 13.9 C 12.9 km/h
115 01-07-2021 09:30:00 13.7 C 11.13 g/m*3 13.7 C 14.5 km/h
116 01-07-2021 09:35:00 13.5 C 11.11 g/m*3 13.5 C 8.1 km/h
117 01-07-2021 09:40:00 13.4 C 11.04 g/m*3 13.4 C 4.8 km/h
118 01-07-2021 09:45:00 13.4 C 11.04 g/m*3 13.4 C 6.4 km/h
119 01-07-2021 09:50:00 13.5 C 11.11 g/m*3 13.5 C 6.4 km/h
120 01-07-2021 09:55:00 13.5 C 11.11 g/m*3 13.5 C 6.4 km/h
121 01-07-2021 10:00:00 13.5 C 11.11 g/m*3 13.5 C 6.4 km/h
122 01-07-2021 10:05:00 13.5 C 11.11 g/m*3 13.5 C 0 km/h
123 01-07-2021 10:10:00 13.6 C 11.3 g/m*3 13.6 C 0 km/h
124 01-07-2021 10:15:00 13.8 C 11.44 g/m*3 13.8 C 0 km/h
125 01-07-2021 10:20:00 14.1 C 11.65 g/m*3 14.1 C 3.2 km/h
Sensor: Nr:Datum:Temp:Abs-Feuchte:Windchill:Wind:
Aussen-T/F 126 01-07-2021 10:25:00 14.3 C 11.79 g/m*3 14.3 C 0 km/h
127 01-07-2021 10:30:00 14.4 C 11.87 g/m*3 14.4 C 0 km/h
128 01-07-2021 10:35:00 14.6 C 12.01 g/m*3 14.6 C 3.2 km/h
129 01-07-2021 10:40:00 14.8 C 12.16 g/m*3 14.8 C 4.8 km/h
130 01-07-2021 10:45:00 14.9 C 12.11 g/m*3 14.9 C 6.4 km/h
131 01-07-2021 10:50:00 14.8 C 11.65 g/m*3 14.8 C 11.3 km/h
132 01-07-2021 10:55:00 14.8 C 11.65 g/m*3 14.8 C 8.1 km/h
133 01-07-2021 11:00:00 14.8 C 11.53 g/m*3 14.8 C 11.3 km/h
134 01-07-2021 11:05:00 14.9 C 11.47 g/m*3 14.9 C 8.1 km/h
135 01-07-2021 11:10:00 15.1 C 11.61 g/m*3 15.1 C 9.7 km/h
136 01-07-2021 11:15:00 15.3 C 11.62 g/m*3 15.3 C 9.7 km/h
137 01-07-2021 11:20:00 15.5 C 11.63 g/m*3 15.5 C 6.4 km/h
138 01-07-2021 11:25:00 15.7 C 11.64 g/m*3 15.7 C 6.4 km/h
139 01-07-2021 11:30:00 15.7 C 11.51 g/m*3 15.7 C 12.9 km/h
140 01-07-2021 11:35:00 15.8 C 11.58 g/m*3 15.8 C 11.3 km/h
141 01-07-2021 11:40:00 15.8 C 11.31 g/m*3 15.8 C 8.1 km/h
142 01-07-2021 11:45:00 15.9 C 11.51 g/m*3 15.9 C 8.1 km/h
143 01-07-2021 11:50:00 16 C 11.31 g/m*3 16 C 9.7 km/h
144 01-07-2021 11:55:00 16.1 C 11.24 g/m*3 16.1 C 6.4 km/h
145 01-07-2021 12:00:00 16.1 C 11.38 g/m*3 16.1 C 8.1 km/h
146 01-07-2021 12:05:00 16.1 C 11.1 g/m*3 16.1 C 8.1 km/h
147 01-07-2021 12:10:00 16.2 C 11.17 g/m*3 16.2 C 8.1 km/h
148 01-07-2021 12:15:00 16.2 C 11.31 g/m*3 16.2 C 6.4 km/h
149 01-07-2021 12:20:00 16.4 C 11.58 g/m*3 16.4 C 9.7 km/h
150 01-07-2021 12:25:00 16.4 C 11.45 g/m*3 16.4 C 8.1 km/h
Sensor: Nr:Datum:Temp:Abs-Feuchte:Windchill:Wind:
Aussen-T/F 151 01-07-2021 12:30:00 16.4 C 11.45 g/m*3 16.4 C 8.1 km/h
152 01-07-2021 12:35:00 16.5 C 11.51 g/m*3 16.5 C 4.8 km/h
153 01-07-2021 12:40:00 16.5 C 11.51 g/m*3 16.5 C 6.4 km/h
154 01-07-2021 12:45:00 16.6 C 11.44 g/m*3 16.6 C 9.7 km/h
155 01-07-2021 12:50:00 16.6 C 11.44 g/m*3 16.6 C 8.1 km/h
156 01-07-2021 12:55:00 16.7 C 11.65 g/m*3 16.7 C 4.8 km/h
157 01-07-2021 13:00:00 16.8 C 11.58 g/m*3 16.8 C 8.1 km/h
158 01-07-2021 13:05:00 16.8 C 11.29 g/m*3 16.8 C 9.7 km/h
159 01-07-2021 13:10:00 16.8 C 11.29 g/m*3 16.8 C 9.7 km/h
160 01-07-2021 13:15:00 16.9 C 11.36 g/m*3 16.9 C 6.4 km/h
161 01-07-2021 13:20:00 17.1 C 11.5 g/m*3 17.1 C 11.3 km/h
162 01-07-2021 13:25:00 16.9 C 11.22 g/m*3 16.9 C 9.7 km/h
163 01-07-2021 13:30:00 16.8 C 11.15 g/m*3 16.8 C 11.3 km/h
164 01-07-2021 13:35:00 16.7 C 11.37 g/m*3 16.7 C 9.7 km/h
165 01-07-2021 13:40:00 16.6 C 11.16 g/m*3 16.6 C 9.7 km/h
166 01-07-2021 13:45:00 16.5 C 11.23 g/m*3 16.5 C 8.1 km/h
167 01-07-2021 13:50:00 16.5 C 11.23 g/m*3 16.5 C 4.8 km/h
168 01-07-2021 13:55:00 16.6 C 11.3 g/m*3 16.6 C 9.7 km/h
169 01-07-2021 14:00:00 16.6 C 11.16 g/m*3 16.6 C 11.3 km/h
170 01-07-2021 14:05:00 16.7 C 11.08 g/m*3 16.7 C 12.9 km/h
171 01-07-2021 14:10:00 16.7 C 11.23 g/m*3 16.7 C 11.3 km/h
172 01-07-2021 14:15:00 16.6 C 11.02 g/m*3 16.6 C 12.9 km/h
173 01-07-2021 14:20:00 16.6 C 11.02 g/m*3 16.6 C 11.3 km/h
174 01-07-2021 14:25:00 16.8 C 11.15 g/m*3 16.8 C 14.5 km/h
175 01-07-2021 14:30:00 17 C 11.14 g/m*3 17 C 11.3 km/h
Sensor: Nr:Datum:Temp:Abs-Feuchte:Windchill:Wind:
Aussen-T/F 176 01-07-2021 14:35:00 17.3 C 11.2 g/m*3 17.3 C 9.7 km/h
177 01-07-2021 14:40:00 17.6 C 11.25 g/m*3 17.6 C 12.9 km/h
178 01-07-2021 14:45:00 17.7 C 11.32 g/m*3 17.7 C 16.1 km/h
179 01-07-2021 14:50:00 17.8 C 11.54 g/m*3 17.8 C 16.1 km/h
180 01-07-2021 14:55:00 17.8 C 11.54 g/m*3 17.8 C 9.7 km/h
181 01-07-2021 15:00:00 17.6 C 11.25 g/m*3 17.6 C 14.5 km/h
182 01-07-2021 15:05:00 17.3 C 10.9 g/m*3 17.3 C 16.1 km/h
183 01-07-2021 15:10:00 17.1 C 11.21 g/m*3 17.1 C 12.9 km/h
184 01-07-2021 15:15:00 16.9 C 10.93 g/m*3 16.9 C 14.5 km/h
185 01-07-2021 15:20:00 16.7 C 10.94 g/m*3 16.7 C 11.3 km/h
186 01-07-2021 15:25:00 16.7 C 11.08 g/m*3 16.7 C 11.3 km/h
187 01-07-2021 15:30:00 16.6 C 11.02 g/m*3 16.6 C 9.7 km/h
188 01-07-2021 15:35:00 16.6 C 10.88 g/m*3 16.6 C 11.3 km/h
189 01-07-2021 15:40:00 16.5 C 10.81 g/m*3 16.5 C 11.3 km/h
190 01-07-2021 15:45:00 16.5 C 11.09 g/m*3 16.5 C 6.4 km/h
191 01-07-2021 15:50:00 16.5 C 11.09 g/m*3 16.5 C 9.7 km/h
192 01-07-2021 15:55:00 16.5 C 11.09 g/m*3 16.5 C 6.4 km/h
193 01-07-2021 16:00:00 16.6 C 11.3 g/m*3 16.6 C 6.4 km/h
194 01-07-2021 16:05:00 16.7 C 11.23 g/m*3 16.7 C 12.9 km/h
195 01-07-2021 16:10:00 16.6 C 11.02 g/m*3 16.6 C 9.7 km/h
196 01-07-2021 16:15:00 16.5 C 10.95 g/m*3 16.5 C 14.5 km/h
197 01-07-2021 16:20:00 16.4 C 11.03 g/m*3 16.4 C 4.8 km/h
198 01-07-2021 16:25:00 16.4 C 10.89 g/m*3 16.4 C 11.3 km/h
199 01-07-2021 16:30:00 16.3 C 10.96 g/m*3 16.3 C 8.1 km/h
200 01-07-2021 16:35:00 16.3 C 10.96 g/m*3 16.3 C 14.5 km/h
Sensor: Nr:Datum:Temp:Abs-Feuchte:Windchill:Wind:
Aussen-T/F 201 01-07-2021 16:40:00 16.3 C 10.82 g/m*3 16.3 C 11.3 km/h
202 01-07-2021 16:45:00 16.4 C 11.17 g/m*3 16.4 C 9.7 km/h
203 01-07-2021 16:50:00 16.4 C 11.17 g/m*3 16.4 C 9.7 km/h
204 01-07-2021 16:55:00 16.5 C 11.09 g/m*3 16.5 C 12.9 km/h
205 01-07-2021 17:00:00 16.6 C 11.02 g/m*3 16.6 C 11.3 km/h
206 01-07-2021 17:05:00 16.6 C 11.02 g/m*3 16.6 C 4.8 km/h
207 01-07-2021 17:10:00 16.8 C 11.44 g/m*3 16.8 C 4.8 km/h
208 01-07-2021 17:15:00 16.8 C 11.15 g/m*3 16.8 C 4.8 km/h
209 01-07-2021 17:20:00 16.9 C 11.36 g/m*3 16.9 C 6.4 km/h
210 01-07-2021 17:25:00 16.9 C 11.22 g/m*3 16.9 C 9.7 km/h
211 01-07-2021 17:30:00 17 C 11.43 g/m*3 17 C 8.1 km/h
212 01-07-2021 17:35:00 17 C 11.43 g/m*3 17 C 3.2 km/h
213 01-07-2021 17:40:00 17.1 C 11.35 g/m*3 17.1 C 4.8 km/h
214 01-07-2021 17:45:00 17 C 11.14 g/m*3 17 C 6.4 km/h
215 01-07-2021 17:50:00 16.9 C 11.36 g/m*3 16.9 C 3.2 km/h
216 01-07-2021 17:55:00 16.7 C 11.08 g/m*3 16.7 C 11.3 km/h
217 01-07-2021 18:00:00 16.5 C 10.95 g/m*3 16.5 C 12.9 km/h
218 01-07-2021 18:05:00 16.4 C 11.03 g/m*3 16.4 C 11.3 km/h
219 01-07-2021 18:10:00 16.3 C 11.1 g/m*3 16.3 C 8.1 km/h
220 01-07-2021 18:15:00 16.3 C 11.1 g/m*3 16.3 C 6.4 km/h
221 01-07-2021 18:20:00 16.4 C 11.17 g/m*3 16.4 C 4.8 km/h
222 01-07-2021 18:25:00 16.4 C 11.03 g/m*3 16.4 C 1.6 km/h
223 01-07-2021 18:30:00 16.5 C 11.09 g/m*3 16.5 C 1.6 km/h
224 01-07-2021 18:35:00 16.6 C 11.16 g/m*3 16.6 C 4.8 km/h
225 01-07-2021 18:40:00 16.6 C 11.16 g/m*3 16.6 C 6.4 km/h
Sensor: Nr:Datum:Temp:Abs-Feuchte:Windchill:Wind:
Aussen-T/F 226 01-07-2021 18:45:00 16.6 C 11.02 g/m*3 16.6 C 6.4 km/h
227 01-07-2021 18:50:00 16.6 C 11.3 g/m*3 16.6 C 4.8 km/h
228 01-07-2021 18:55:00 16.6 C 11.16 g/m*3 16.6 C 6.4 km/h
229 01-07-2021 19:00:00 16.6 C 11.16 g/m*3 16.6 C 3.2 km/h
230 01-07-2021 19:05:00 16.5 C 11.23 g/m*3 16.5 C 3.2 km/h
231 01-07-2021 19:10:00 16.5 C 11.23 g/m*3 16.5 C 4.8 km/h
232 01-07-2021 19:15:00 16.4 C 11.31 g/m*3 16.4 C 6.4 km/h
233 01-07-2021 19:20:00 16.6 C 11.72 g/m*3 16.6 C 0 km/h
234 01-07-2021 19:25:00 16.6 C 11.44 g/m*3 16.6 C 4.8 km/h
235 01-07-2021 19:30:00 16.5 C 11.23 g/m*3 16.5 C 1.6 km/h
236 01-07-2021 19:35:00 16.6 C 11.16 g/m*3 16.6 C 4.8 km/h
237 01-07-2021 19:40:00 16.7 C 11.37 g/m*3 16.7 C 6.4 km/h
238 01-07-2021 19:45:00 16.7 C 11.37 g/m*3 16.7 C 8.1 km/h
239 01-07-2021 19:50:00 16.6 C 11.02 g/m*3 16.6 C 8.1 km/h
240 01-07-2021 19:55:00 16.4 C 11.03 g/m*3 16.4 C 4.8 km/h
241 01-07-2021 20:00:00 16.3 C 10.96 g/m*3 16.3 C 4.8 km/h
242 01-07-2021 20:05:00 16.3 C 10.96 g/m*3 16.3 C 6.4 km/h
243 01-07-2021 20:10:00 16.2 C 11.17 g/m*3 16.2 C 1.6 km/h
244 01-07-2021 20:15:00 16.2 C 11.17 g/m*3 16.2 C 6.4 km/h
245 01-07-2021 20:20:00 16.1 C 11.1 g/m*3 16.1 C 6.4 km/h
246 01-07-2021 20:25:00 16.1 C 11.24 g/m*3 16.1 C 4.8 km/h
247 01-07-2021 20:30:00 15.9 C 10.97 g/m*3 15.9 C 8.1 km/h
248 01-07-2021 20:35:00 15.8 C 11.04 g/m*3 15.8 C 4.8 km/h
249 01-07-2021 20:40:00 15.8 C 11.04 g/m*3 15.8 C 3.2 km/h
250 01-07-2021 20:45:00 15.7 C 10.97 g/m*3 15.7 C 6.4 km/h
Sensor: Nr:Datum:Temp:Abs-Feuchte:Windchill:Wind:
Aussen-T/F 251 01-07-2021 20:50:00 15.6 C 10.91 g/m*3 15.6 C 1.6 km/h
252 01-07-2021 20:55:00 15.6 C 11.04 g/m*3 15.6 C 3.2 km/h
253 01-07-2021 21:00:00 15.5 C 10.97 g/m*3 15.5 C 8.1 km/h
254 01-07-2021 21:05:00 15.4 C 11.04 g/m*3 15.4 C 1.6 km/h
255 01-07-2021 21:10:00 15.4 C 11.04 g/m*3 15.4 C 1.6 km/h
256 01-07-2021 21:15:00 15.4 C 11.04 g/m*3 15.4 C 0 km/h
257 01-07-2021 21:20:00 15.4 C 11.3 g/m*3 15.4 C 0 km/h
258 01-07-2021 21:25:00 15.4 C 11.3 g/m*3 15.4 C 0 km/h
259 01-07-2021 21:30:00 15.3 C 11.23 g/m*3 15.3 C 0 km/h
260 01-07-2021 21:35:00 15.3 C 11.36 g/m*3 15.3 C 0 km/h
261 01-07-2021 21:40:00 15.2 C 11.29 g/m*3 15.2 C 0 km/h
262 01-07-2021 21:45:00 15.2 C 11.42 g/m*3 15.2 C 1.6 km/h
263 01-07-2021 21:50:00 15.1 C 11.35 g/m*3 15.1 C 0 km/h
264 01-07-2021 21:55:00 15 C 11.28 g/m*3 15 C 0 km/h
265 01-07-2021 22:00:00 14.9 C 11.22 g/m*3 14.9 C 0 km/h
266 01-07-2021 22:05:00 14.8 C 11.27 g/m*3 14.8 C 0 km/h
267 01-07-2021 22:10:00 14.8 C 11.27 g/m*3 14.8 C 0 km/h
268 01-07-2021 22:15:00 14.7 C 11.21 g/m*3 14.7 C 0 km/h
269 01-07-2021 22:20:00 14.7 C 11.33 g/m*3 14.7 C 0 km/h
270 01-07-2021 22:25:00 14.6 C 11.26 g/m*3 14.6 C 0 km/h
271 01-07-2021 22:30:00 14.6 C 11.26 g/m*3 14.6 C 0 km/h
272 01-07-2021 22:35:00 14.6 C 11.26 g/m*3 14.6 C 0 km/h
273 01-07-2021 22:40:00 14.5 C 11.19 g/m*3 14.5 C 0 km/h
274 01-07-2021 22:45:00 14.4 C 11.13 g/m*3 14.4 C 0 km/h
275 01-07-2021 22:50:00 14.4 C 11.25 g/m*3 14.4 C 0 km/h
Sensor: Nr:Datum:Temp:Abs-Feuchte:Windchill:Wind:
Aussen-T/F 276 01-07-2021 22:55:00 14.4 C 11.13 g/m*3 14.4 C 0 km/h
277 01-07-2021 23:00:00 14.3 C 11.18 g/m*3 14.3 C 0 km/h
278 01-07-2021 23:05:00 14.3 C 11.06 g/m*3 14.3 C 3.2 km/h
279 01-07-2021 23:10:00 14.3 C 11.18 g/m*3 14.3 C 0 km/h
280 01-07-2021 23:15:00 14.2 C 11.11 g/m*3 14.2 C 0 km/h
281 01-07-2021 23:20:00 14.2 C 11.11 g/m*3 14.2 C 0 km/h
282 01-07-2021 23:25:00 14.2 C 11.11 g/m*3 14.2 C 0 km/h
283 01-07-2021 23:30:00 14.2 C 11.11 g/m*3 14.2 C 0 km/h
284 01-07-2021 23:35:00 14.1 C 11.04 g/m*3 14.1 C 0 km/h
285 01-07-2021 23:40:00 14.1 C 11.04 g/m*3 14.1 C 0 km/h
286 01-07-2021 23:45:00 14.1 C 11.04 g/m*3 14.1 C 0 km/h
287 01-07-2021 23:50:00 14.1 C 11.04 g/m*3 14.1 C 0 km/h
288 01-07-2021 23:55:00 14.1 C 11.04 g/m*3 14.1 C 0 km/h

Legende:
   Min
   Max


Maximal/Minimal-Werte vom 01.07.2021 - 01.07.2021

Sensor Min Max Avg
Temp
(Aussen-T/F)
13.4 °C
01-07-2021  09:40:00
17.8 °C
01-07-2021  14:50:00
15.16 °C
Abs-Feuchte
(Aussen-T/F)
10.81 g/m*3
01-07-2021  15:40:00
12.16 g/m*3
01-07-2021  00:00:00
11.38 g/m*3
Windchill
(Aussen-T/F)
13.4 C
01-07-2021  09:40:00
17.8 C
01-07-2021  14:50:00
15.11 C

Die Daten stammen von einer Davis Vantage Pro 2 Wetter-Station und werden unter Linux mit der Software wview2wettercgi und aufbereitet. Alle Angaben erfolgen ohne Gewähr für ihre Vollständigkeit oder Richtigkeit.
Kontakt: Rainer Krienke krienke@uni-koblenz.de . Meine Webseiten an der Uni Koblenz oder privat.
Version: $Revision: 0.78 $